DELTA 1 DEB, 28443

Orbit data source: Space-Track

DELTA 1 DEB, 28443 is space debris in LEO originally from a launch on Thu, 08 Feb 1962 UTC launched from the Air Force Eastern Test Range (AFETR). Debris objects in space refer to the collection of defunct objects orbiting the Earth. Examples of debris include non-operational satellites, rocket bodies, and fragments generated from explosions, collisions, or faulty payload assembly.

Loading next visibility...
DELTA 1 DEB details
Identifier
28443, 1962-002E
Orbit
LEO
Last TLE update2 days ago
Origin
Flag of USGSFC (US)
ManufacturerLM/EW
MissionSpacecraft
Bus & MotorUnknown
MassUnknown
Launch date (UTC)
1962-02-08 (63 years ago)
Launch vehicleUnknown
Launch site
Air Force Eastern Test Range (AFETR)
Object type
Payload
Rocket body
Debris
Shape & HBRUnknown
Radar Cross SectionSmall (<0.1 m²)

Expand to show TLE details & history

TLE from 2 days ago
0 DELTA 1 DEB
1 28443U 62002E   25036.51544102  .00001299  00000-0  31116-3 0  9995
2 28443  48.2677 206.4462 0072393 324.4545  78.2854 14.57797962234855
Epoch: 2025-02-05T12:22Z
Definitive object data (Epoch: 2025-02-05T12:22:14.104Z)
Latitude31.04807°
Longitude-82.7361°
Altitude691.596 km
Speed7.52 km/s
True Right ascension15h 54m 54s
True Declination30° 53' 42"
Sunlit
Object was in daylight at TLE epoch
Visualization TLE readout
Latitude-48.39904°
Longitude143.0412°
Altitude694.263 km
Speed7.521 km/s
Apparent Right ascension05h 56m 07s
Apparent Declination-45° 12' 35"
Sunlit
Object is in daylight
Visualization observer readout
Local Sidereal Time16:56:45
Azimuth239.256° WSW
Elevation-77.878°
Doppler factor1
Orbital elements
Apogee altitude752.572 km
Perigee altitude650.072 km
Semi-major axis7,079.459 km
Eccentricity0.0072393
Inclination48.2677°
RAAN206.4462°
Arg. of periapsis324.4545°
True anomaly79.09915°
Mean anomaly78.2854°
Eccentric anomaly78.69213°
Mean motion3.6437 °/min
BSTAR0.00031116
Orbital period98.8 mins
Loading maneuver chart data...
Loading historical data...
Loading historical data...
Loading historical data...
Loading historical data...
Loading historical data...
Loading historical data...
Loading historical data...

DELTA 1 DEB Visibility forecast

Observer location: undefined°, undefined

Span
Click to sort rows by Start time (UTC) header in descending order
Start Az.
Max El. time (UTC)
Max El. Az.
Max El.
End time (UTC)
End Az.
8 mins2025-02-07 15:26:19.785Z277.008° WNW2025-02-07 15:30:19.785Z347.554° N33.323°2025-02-07 15:34:19.785Z51.167° ENE
7 mins2025-02-07 17:11:19.785Z310.189° NW2025-02-07 17:14:19.785Z359.53° N28.171°2025-02-07 17:18:19.785Z63.063° ENE
8 mins2025-02-07 18:55:19.785Z310.325° NW2025-02-07 18:58:19.785Z4.315° NNE40.161°2025-02-07 19:03:19.785Z103.174° ESE
8 mins2025-02-07 20:38:19.785Z282.839° WNW2025-02-07 20:42:19.785Z213.976° SW31.649°2025-02-07 20:46:19.785Z157.255° SSE
6 mins2025-02-08 12:44:19.785Z190.966° SSW2025-02-08 12:46:19.785Z151.439° SSE31.15°2025-02-08 12:50:19.785Z76.785° E
8 mins2025-02-08 14:26:19.785Z261.362° W2025-02-08 14:30:19.785Z349.944° N39.38°2025-02-08 14:34:19.785Z53.085° ENE
|